[[{"header":{"parameterUnit":"m.s-1","parameterCategory":1,"la1":30.2991,"la2":30.254,"lo1":-89.0895,"lo2":-89.0444,"dy":0.0017,"dx":0.0017,"nx":28,"ny":28,"refTime":"2024-05-10T21:00:00:Z","depth":0,"parameterNumber":2,"parameterNumberName":"U-component_of_WINDS"},"data":[0,0,0,0,0,0,0,0,0,0,0,0,0,0,0,0,0,0,0,0,0,0,0,0,0,0,0,0,0,0,0,0,0,0,0,0,0,0,0,0,0,0,0,0,0,0,0,0,0,0,0,0,0,0,0,0,0,0,-5.5031,-5.5031,0,-5.4979,-5.4978,-5.4978,-5.4864,-5.4862,-5.486,-5.4858,-5.4807,-5.4808,-5.4809,0,0,0,0,0,0,0,0,0,0,0,0,0,-5.5038,-5.5038,-5.5031,-5.5031,-5.503,-5.4979,-5.4978,-5.4978,-5.4865,-5.4862,-5.4859,-5.4856,-5.4807,-5.4808,-5.4809,0,0,0,0,0,0,0,0,0,0,0,0,0,-5.5015,-5.5038,-5.5031,-5.4967,-5.4961,-5.4979,-5.4978,-5.4977,-5.4865,-5.4862,-5.4858,-5.4855,-5.4807,-5.4808,-5.4809,-5.4886,0,0,-5.4813,-5.4814,0,0,0,0,0,0,0,0,-5.5017,-5.5015,-5.4978,-5.4972,-5.4965,-5.4925,-5.4962,-5.4947,-5.4866,-5.4902,-5.4857,-5.4853,-5.4849,-5.4847,-5.4845,-5.4884,-5.4882,-5.4813,-5.4814,-5.4814,-5.4815,0,0,0,0,0,0,0,-5.5019,-5.5017,-5.5011,-5.4977,-5.4969,-5.4943,-5.4936,-5.4959,-5.4896,-5.4898,-5.489,-5.4885,-5.4845,-5.4844,-5.4843,-5.4881,-5.4813,-5.4814,-5.4815,-5.4815,-5.4981,-5.4985,0,0,0,0,0,0,-5.5029,-5.5019,-5.5012,-5.5009,-5.4983,-5.4946,-5.4938,-5.4941,-5.4895,-5.4885,-5.4888,-5.488,-5.4844,-5.4842,-5.4841,-5.4927,-5.4814,-5.4816,-5.4816,-5.4978,-5.4982,-5.4986,0,0,0,0,0,0,-5.5029,-5.5029,-5.5014,-5.5012,-5.5008,-5.4949,-5.4954,-5.4942,-5.494,-5.4887,-5.4876,-5.4898,-5.4841,-5.4839,-5.4876,-5.4923,-5.4816,-5.4817,-5.4973,-5.4979,-5.4984,-5.5101,0,0,0,0,0,0,-5.503,-5.503,-5.5058,-5.5013,-5.5008,-5.5049,-5.4957,-5.4943,-5.4942,-5.4931,-5.4894,-5.4884,-5.4838,-5.4874,-5.4877,-5.4923,-5.4818,-5.4969,-5.4976,-5.4982,-5.5092,-5.511,-5.5124,0,0,0,0,0,-5.5031,-5.5093,-5.5059,-5.5059,-5.5041,-5.5052,-5.5049,-5.4994,-5.4947,-5.4974,-5.4941,-5.4885,-5.4919,-5.4879,-5.4881,-5.4928,-5.4965,-5.4974,-5.4982,-5.5085,-5.5106,-5.5124,0,0,0,0,0,0,-5.5146,-5.5086,-5.5048,-5.5098,-5.5081,-5.5033,-5.5066,-5.5018,-5.5015,-5.5005,-5.4937,-5.493,-5.4976,-5.4956,-5.4913,-5.5001,-5.4933,-5.4942,-5.5011,-5.5031,-5.5047,-5.5049,-5.4819,0,0,0,0,0,-5.5177,-5.5189,-5.5137,-5.5186,-5.518,-5.5125,-5.5128,-5.5086,-5.5066,-5.5059,-5.5028,-5.5012,-5.5018,-5.5024,-5.5027,-5.509,-5.508,-5.5124,-5.514,-5.5154,-5.5161,-5.5193,-5.5211,-5.5013,-5.5013,-5.5013,0,0,-5.5241,-5.521,-5.5222,-5.5209,-5.519,-5.5206,-5.5119,-5.5139,-5.515,-5.5062,-5.5093,-5.5071,-5.5049,-5.5099,-5.512,-5.5084,-5.5215,-5.5164,-5.5175,-5.5175,-5.5203,-5.5222,-5.5239,-5.5019,-5.5018,-5.5017,0,0,-5.5365,-5.5344,-5.5382,-5.5366,-5.5339,-5.5302,-5.5312,-5.5272,-5.5253,-5.5284,-5.5218,-5.5232,-5.5245,-5.5231,-5.5226,-5.5348,-5.5297,-5.5352,-5.5434,-5.5466,-5.5481,-5.5495,-5.5537,-5.5553,-5.536,-5.5361,-5.5361,0,-5.5448,-5.5467,-5.5408,-5.5431,-5.5428,-5.5349,-5.5387,-5.5375,-5.5352,-5.5352,-5.5313,-5.5328,-5.5307,-5.5353,-5.5383,-5.5382,-5.5391,-5.5354,-5.5484,-5.5497,-5.5509,-5.5548,-5.5564,-5.5367,-5.5367,-5.5366,-5.5365,0,-5.5571,-5.5586,-5.562,-5.5598,-5.5599,-5.563,-5.5576,-5.5585,-5.5545,-5.5513,-5.5546,-5.5519,-5.5516,-5.5524,-5.5486,-5.5565,-5.5544,-5.5496,-5.5426,-5.5535,-5.5571,-5.5586,-5.5377,-5.5374,-5.5372,-5.5371,0,0,-5.5762,-5.5708,-5.5722,-5.5711,-5.5677,-5.5688,-5.5718,-5.5713,-5.5721,-5.5709,-5.5731,-5.5745,-5.5701,-5.5695,-5.5655,-5.5684,-5.5781,-5.5632,-5.563,-5.5659,-5.5865,-5.59,-5.5918,-5.5748,-5.5751,-5.5753,-5.5867,0,-5.5877,-5.592,-5.5869,-5.5924,-5.5937,-5.5864,-5.589,-5.5873,-5.5845,-5.5853,-5.5823,-5.5833,-5.5774,-5.577,-5.5795,-5.5764,-5.5821,-5.5755,-5.5768,-5.5769,-5.5773,-5.5937,-5.5973,-5.6081,-5.588,-5.5883,-5.5885,0,-5.6015,-5.6008,-5.6065,-5.6028,-5.6031,-5.6055,-5.6047,-5.6056,-5.6036,-5.6014,-5.6009,-5.5961,-5.5988,-5.5923,-5.5959,-5.5916,-5.5919,-5.5905,-5.5908,-5.5904,-5.5831,-5.5936,-5.6115,-5.613,-5.5906,-5.5905,-5.5903,0,-5.6147,-5.6152,-5.6186,-5.618,-5.6139,-5.6157,-5.6141,-5.6117,-5.6118,-5.6113,-5.6113,-5.6111,-5.611,-5.6111,-5.6064,-5.6021,-5.6107,-5.6037,-5.6088,-5.609,-5.6107,-5.6106,-5.6286,-5.6114,-5.6114,-5.6113,-5.6113,0,-5.6278,-5.6315,-5.6245,-5.6266,-5.6306,-5.6248,-5.6289,-5.6266,-5.6246,-5.6262,-5.6201,-5.6218,-5.6156,-5.6167,-5.6132,-5.6167,-5.6168,-5.615,-5.614,-5.6154,-5.6156,-5.6153,-5.6143,-5.6118,-5.6117,-5.6116,-5.6115,0,-5.643,-5.6384,-5.6417,-5.6375,-5.6366,-5.6397,-5.6362,-5.6381,-5.635,-5.6371,-5.6373,-5.6325,-5.6335,-5.6289,-5.6291,-5.6267,-5.632,-5.6298,-5.6326,-5.6318,-5.6371,-5.6366,-5.6553,-5.6574,-5.6392,-5.6394,-5.6395,0,-5.6515,-5.6541,-5.6503,-5.6509,-5.6496,-5.6506,-5.6507,-5.6452,-5.6456,-5.6436,-5.6457,-5.6462,-5.6462,-5.6481,-5.6447,-5.6449,-5.6425,-5.6491,-5.6424,-5.6438,-5.6423,-5.6421,-5.6423,-5.6503,-5.6506,-5.6507,-5.6509,0,-5.667,-5.6647,-5.6649,-5.6645,-5.6647,-5.6641,-5.6631,-5.664,-5.6581,-5.6589,-5.6597,-5.6598,-5.66,-5.6605,-5.66,-5.6585,-5.6537,-5.6531,-5.6542,-5.6555,-5.6569,-5.656,-5.6361,-5.6526,-5.6524,-5.6523,-5.6522,-5.6521,-5.6789,-5.6809,-5.6786,-5.6791,-5.6778,-5.6771,-5.6785,-5.6757,-5.6763,-5.6759,-5.6728,-5.6742,-5.6724,-5.6712,-5.6701,-5.6713,-5.6682,-5.6699,-5.6703,-5.6707,-5.6716,-5.657,-5.6712,-5.6712,-5.6711,-5.6711,-5.671,0,-5.6939,-5.6921,-5.6927,-5.6914,-5.6919,-5.6875,-5.6862,-5.6869,-5.6882,-5.6869,-5.687,-5.6881,-5.6886,-5.6854,-5.6855,-5.687,-5.6849,-5.6872,-5.6869,-5.6866,-5.6744,-5.6733,-5.689,-5.689,-5.689,-5.689,-5.689,-5.689,-5.7017,-5.7049,-5.7023,-5.7049,-5.703,-5.7043,-5.704,-5.7033,-5.7021,-5.7035,-5.7039,-5.7018,-5.6997,-5.6997,-5.7,-5.699,-5.6993,-5.7024,-5.7007,-5.6892,-5.6875,-5.6858,-5.6847,-5.7025,-5.7025,-5.7127,-5.7128,-5.7129]},{"header":{"parameterUnit":"m.s-1","parameterCategory":1,"la1":30.2991,"la2":30.254,"lo1":-89.0895,"lo2":-89.0444,"dy":0.0017,"dx":0.0017,"nx":28,"ny":28,"refTime":"2024-05-10T21:00:00:Z","depth":0,"parameterNumber":3,"parameterNumberName":"V-component_of_WINDS"},"data":[0,0,0,0,0,0,0,0,0,0,0,0,0,0,0,0,0,0,0,0,0,0,0,0,0,0,0,0,0,0,0,0,0,0,0,0,0,0,0,0,0,0,0,0,0,0,0,0,0,0,0,0,0,0,0,0,0,0,1.664,1.664,0,1.667,1.667,1.6671,1.6703,1.6704,1.6704,1.6705,1.6733,1.6733,1.6733,0,0,0,0,0,0,0,0,0,0,0,0,0,1.6609,1.661,1.664,1.664,1.6641,1.667,1.667,1.6671,1.6703,1.6704,1.6704,1.6705,1.6733,1.6733,1.6733,0,0,0,0,0,0,0,0,0,0,0,0,0,1.6629,1.661,1.664,1.666,1.6662,1.667,1.667,1.6671,1.6703,1.6704,1.6704,1.6705,1.6733,1.6733,1.6733,1.6722,0,0,1.6735,1.6735,0,0,0,0,0,0,0,0,1.6628,1.663,1.6657,1.6659,1.6661,1.6684,1.667,1.6688,1.6703,1.6688,1.6705,1.6705,1.6716,1.6718,1.6722,1.6723,1.6725,1.6735,1.6735,1.6735,1.6736,0,0,0,0,0,0,0,1.6627,1.6629,1.6652,1.6657,1.666,1.6668,1.6671,1.6674,1.6697,1.6689,1.6691,1.6695,1.6717,1.6721,1.6722,1.6725,1.6735,1.6735,1.6736,1.6736,1.6721,1.672,0,0,0,0,0,0,1.6622,1.6628,1.6651,1.6653,1.6646,1.6668,1.6672,1.6676,1.6697,1.6701,1.6694,1.6696,1.672,1.6722,1.6724,1.6713,1.6735,1.6736,1.6736,1.6722,1.6721,1.672,0,0,0,0,0,0,1.6622,1.6624,1.665,1.6641,1.6645,1.6668,1.6672,1.6676,1.668,1.6701,1.6705,1.6694,1.6721,1.6723,1.6723,1.6714,1.6736,1.6736,1.6722,1.6721,1.672,1.669,0,0,0,0,0,0,1.6621,1.6624,1.662,1.6641,1.6645,1.6648,1.6671,1.6676,1.6681,1.6684,1.6702,1.6706,1.6721,1.6722,1.6723,1.6715,1.6737,1.6723,1.6722,1.6721,1.6692,1.6688,1.6685,0,0,0,0,0,1.662,1.6609,1.6619,1.6622,1.6641,1.6648,1.665,1.6669,1.668,1.6676,1.669,1.6705,1.6715,1.6722,1.6723,1.6715,1.6724,1.6722,1.6721,1.6694,1.6689,1.6685,0,0,0,0,0,0,1.6585,1.6612,1.6624,1.662,1.6631,1.6653,1.6649,1.6663,1.6671,1.6674,1.6696,1.67,1.6697,1.6706,1.6713,1.6706,1.6722,1.672,1.67,1.6696,1.6693,1.669,1.6737,0,0,0,0,0,1.6577,1.6581,1.6604,1.6599,1.6604,1.6625,1.6629,1.6643,1.6656,1.666,1.6674,1.6685,1.6691,1.6694,1.6701,1.6694,1.6699,1.6689,1.6686,1.6683,1.6681,1.668,1.6676,1.6715,1.6715,1.6715,0,0,1.656,1.6576,1.6576,1.6592,1.6603,1.6606,1.6629,1.6632,1.6634,1.666,1.6662,1.6672,1.6686,1.6683,1.6682,1.6691,1.6672,1.6681,1.6678,1.6678,1.6678,1.6674,1.6671,1.6714,1.6714,1.6714,0,0,1.6532,1.6544,1.6541,1.6552,1.6568,1.6583,1.6582,1.6602,1.6611,1.6613,1.6633,1.6637,1.6646,1.6655,1.6661,1.6639,1.6653,1.6641,1.6622,1.662,1.6617,1.6614,1.6607,1.6604,1.6639,1.6639,1.6639,0,1.6508,1.6515,1.6537,1.6539,1.6546,1.6571,1.6569,1.6578,1.6595,1.6599,1.6608,1.6622,1.6633,1.6633,1.6628,1.6632,1.6632,1.6638,1.6616,1.6613,1.6611,1.6604,1.6601,1.6637,1.6638,1.6638,1.6638,0,1.6486,1.6491,1.6486,1.6504,1.651,1.651,1.6532,1.6536,1.655,1.6563,1.6566,1.658,1.6591,1.6592,1.6605,1.6594,1.6599,1.6612,1.6627,1.6605,1.6599,1.6597,1.6635,1.6636,1.6636,1.6636,0,0,1.6435,1.6467,1.6465,1.6474,1.6495,1.6498,1.65,1.6511,1.6514,1.6526,1.6528,1.6536,1.6549,1.6556,1.657,1.6568,1.6551,1.6582,1.6582,1.6576,1.6541,1.6531,1.6528,1.6561,1.6561,1.656,1.654,0,1.641,1.6414,1.6435,1.6433,1.6438,1.6464,1.6465,1.6478,1.6491,1.6497,1.6512,1.6518,1.6534,1.6538,1.6538,1.6553,1.6544,1.6555,1.6562,1.6562,1.6558,1.6525,1.6514,1.6494,1.6538,1.6538,1.6537,0,1.6381,1.6393,1.6391,1.6414,1.6417,1.6418,1.6431,1.6437,1.6452,1.6462,1.6471,1.6488,1.6491,1.6507,1.6511,1.6518,1.6523,1.6531,1.6531,1.6532,1.6548,1.6525,1.6488,1.6485,1.6534,1.6534,1.6534,0,1.6344,1.6359,1.6361,1.6368,1.6395,1.6395,1.6406,1.6422,1.6429,1.644,1.6444,1.6456,1.6462,1.647,1.649,1.6499,1.6492,1.6509,1.6501,1.65,1.6497,1.6497,1.6461,1.6501,1.6501,1.6501,1.6501,0,1.6314,1.6312,1.6345,1.6346,1.6346,1.637,1.6369,1.6382,1.6397,1.6401,1.6424,1.6427,1.6453,1.6459,1.6475,1.6477,1.6479,1.6487,1.6491,1.6485,1.6484,1.6488,1.649,1.65,1.65,1.65,1.65,0,1.6272,1.6294,1.6298,1.6324,1.633,1.6328,1.635,1.6352,1.6368,1.6373,1.6376,1.64,1.6409,1.643,1.6444,1.6454,1.6452,1.646,1.6447,1.645,1.644,1.6441,1.6405,1.6402,1.6443,1.6443,1.6442,0,1.6251,1.6251,1.6277,1.6282,1.6293,1.63,1.6307,1.6332,1.6338,1.6358,1.6357,1.6369,1.6378,1.6392,1.641,1.6421,1.6429,1.6416,1.6431,1.6425,1.6429,1.6429,1.643,1.6412,1.6412,1.6411,1.6411,0,1.6212,1.6224,1.6233,1.6247,1.6256,1.6268,1.6281,1.6283,1.6311,1.6317,1.6327,1.6335,1.6351,1.6362,1.6376,1.6387,1.6404,1.6407,1.6405,1.6399,1.6392,1.6396,1.6438,1.6407,1.6407,1.6408,1.6408,1.6408,1.618,1.6182,1.6201,1.6212,1.6225,1.6237,1.6241,1.6258,1.6267,1.6282,1.6296,1.6305,1.6323,1.6344,1.6354,1.6362,1.637,1.6368,1.6367,1.6366,1.6364,1.6391,1.6364,1.6364,1.6365,1.6365,1.6365,0,1.6143,1.6157,1.6167,1.6185,1.6194,1.621,1.6226,1.6232,1.624,1.6256,1.6266,1.6278,1.6289,1.631,1.6322,1.6325,1.6333,1.6327,1.6327,1.633,1.6356,1.6356,1.632,1.632,1.632,1.632,1.632,1.632,1.6124,1.6128,1.6142,1.6153,1.6167,1.6177,1.6185,1.6197,1.6209,1.6223,1.6232,1.6246,1.6264,1.6279,1.629,1.6296,1.6299,1.6291,1.6299,1.6323,1.6327,1.6331,1.6332,1.6292,1.6292,1.6273,1.6273,1.6273]}]]